Flag for Germany

Past Weather in Witten, North Rhine-Westphalia, Germany — Yesterday and Last 2 Weeks

Now
50 °F

Mostly cloudy.


Feels Like: 46 °F
Forecast: 55 / 49 °F
Wind: 12 mph from South

Location: Dortmund / Wickede
Current Time: Oct 27, 2020 at 5:18:16 am
Latest Report: Oct 27, 2020 at 4:20 am
Visibility: N/A
Pressure29.65 "Hg
Humidity: 76%
Dew Point: 43 °F
Location of WittenLocation

Past Weather in Witten — Graph

°F

Witten Temperature Yesterday

Maximum temperature yesterday: 54 °F (at 12:50 pm)
Minimum temperature yesterday: 50 °F (at 2:20 am)
Average temperature yesterday: 51 °F

High & Low Weather Summary for the Past Weeks

 TemperatureHumidityPressure
High68 °F (Oct 21, 5:50 pm)100% (Oct 12, 4:20 am)30.18 "Hg (Oct 12, 4:20 am)
Low41 °F (Oct 13, 6:20 am)52% (Oct 21, 3:20 pm)29.53 "Hg (Oct 26, 2:20 am)
Average52 °F83%29.92 "Hg
* Reported Oct 12 4:20 am — Oct 27 3:50 am, Witten. Weather by CustomWeather, © 2020

Note: Actual official high and low records may vary slightly from our data, if they occured in-between our weather recording intervals... More about our weather records

Witten Weather History for the Previous 24 Hours

Scroll right to see more
 ConditionsComfort  
Time TempWeatherWind HumidityBarometerVisibility
3:50 am
Tue, Oct 27
50 °FOvercast.15 mph76%29.65 "HgN/A
3:20 am50 °FOvercast.14 mph76%29.65 "HgN/A
2:50 am50 °FOvercast.12 mph76%29.65 "HgN/A
2:20 am50 °FMostly cloudy.13 mph76%29.62 "HgN/A
1:50 am50 °FPassing clouds.13 mph76%29.62 "HgN/A
1:20 am50 °FPartly cloudy.13 mph76%29.62 "HgN/A
12:50 am50 °FPassing clouds.13 mph76%29.62 "HgN/A
12:20 am50 °FPassing clouds.14 mph76%29.62 "HgN/A
11:50 pm
Mon, Oct 26
50 °FPassing clouds.12 mph76%29.62 "HgN/A
11:20 pm50 °FPassing clouds.14 mph76%29.62 "HgN/A
10:50 pm50 °FPassing clouds.12 mph71%29.62 "HgN/A
10:20 pm50 °FPassing clouds.12 mph71%29.62 "HgN/A
9:50 pm50 °FPassing clouds.15 mph71%29.62 "HgN/A
9:20 pm50 °FClear.14 mph71%29.62 "Hg10 mi
8:50 pm50 °FClear.13 mph67%29.62 "Hg10 mi
8:20 pm50 °FPassing clouds.14 mph67%29.62 "HgN/A
7:50 pm52 °FClear.13 mph62%29.59 "Hg10 mi
7:20 pm50 °FClear.12 mph67%29.59 "Hg10 mi
6:50 pm50 °FClear.10 mph67%29.59 "Hg10 mi
5:50 pm52 °FClear.10 mph67%29.59 "Hg10 mi
5:20 pm52 °FClear.9 mph67%29.59 "Hg10 mi
4:50 pm52 °FSunny.8 mph67%29.59 "Hg10 mi
4:20 pm54 °FPassing clouds.12 mph63%29.59 "HgN/A
3:50 pm54 °FPassing clouds.15 mph58%29.59 "HgN/A
3:20 pm54 °FPassing clouds.14 mph63%29.59 "HgN/A
2:50 pm54 °FPartly sunny.15 mph63%29.59 "HgN/A
2:20 pm54 °FSunny.14 mph63%29.59 "Hg10 mi
1:50 pm52 °FBroken clouds.13 mph67%29.59 "HgN/A
12:50 pm54 °FPartly sunny.13 mph67%29.59 "HgN/A
12:20 pm52 °FScattered clouds.13 mph72%29.59 "HgN/A
11:50 am52 °FScattered clouds.13 mph77%29.59 "HgN/A
11:20 am52 °FOvercast.12 mph72%29.59 "HgN/A
10:50 am52 °FLight rain. Broken clouds.15 mph72%29.59 "HgN/A
10:20 am52 °FPartly sunny.10 mph82%29.59 "HgN/A
9:50 am52 °FScattered clouds.7 mph82%29.56 "HgN/A
9:20 am52 °FPassing clouds.9 mph82%29.59 "HgN/A
8:50 am50 °FSunny.6 mph88%29.56 "Hg10 mi
8:20 am50 °FPartly sunny.8 mph88%29.56 "HgN/A
7:50 am50 °FScattered clouds.6 mph88%29.56 "HgN/A
6:50 am50 °FClear.8 mph88%29.53 "Hg10 mi
6:20 am50 °FPassing clouds.9 mph88%29.53 "HgN/A
5:50 am52 °FPassing clouds.13 mph82%29.56 "HgN/A
5:20 am50 °FMostly cloudy.5 mph94%29.56 "HgN/A
Weather by CustomWeather, © 2020

See weather overview